• In Italy
  • List of Countries
  • For 7 days
  • Water Temperature
  • Satellite Maps
  • Weather Map
  • Weather Widgets
  • user-avatar
    Login

    Hourly Weather Newport

    Today, 22 November, Wednesday

    Time Temperature Precipitation Wind Pressure Humidity
    00:00 +12°C° 0 mm 9 mps 751 mmHg 86%
    01:00 +12°C° 0 mm 10 mps 750 mmHg 86%
    02:00 +12°C° 0 mm 10 mps 750 mmHg 85%
    03:00 +12°C° 0 mm 10 mps 750 mmHg 85%
    04:00 +12°C° 0 mm 10 mps 749 mmHg 85%
    05:00 +12°C° 0 mm 11 mps 749 mmHg 85%
    06:00 +12°C° 0 mm 11 mps 748 mmHg 85%
    07:00 +12°C° 0 mm 11 mps 748 mmHg 83%
    08:00 +12°C° 0 mm 12 mps 747 mmHg 80%
    09:00 +13°C° 0 mm 12 mps 747 mmHg 78%
    10:00 +13°C° 0 mm 12 mps 747 mmHg 75%
    11:00 +13°C° 0 mm 12 mps 746 mmHg 73%
    12:00 +14°C° 0 mm 12 mps 746 mmHg 70%
    13:00 +14°C° 0 mm 12 mps 745 mmHg 69%
    14:00 +14°C° 0 mm 12 mps 744 mmHg 68%
    15:00 +14°C° 0 mm 12 mps 743 mmHg 67%
    16:00 +14°C° 0 mm 13 mps 742 mmHg 66%
    17:00 +14°C° 0 mm 14 mps 742 mmHg 66%
    18:00 +14°C° 0 mm 15 mps 741 mmHg 66%
    19:00 +14°C° 0.5 mm 15 mps 741 mmHg 71%
    20:00 +13°C° 0.5 mm 16 mps 740 mmHg 76%
    21:00 +13°C° 0.5 mm 16 mps 740 mmHg 81%
    22:00 +13°C° 1.1 mm 16 mps 739 mmHg 82%
    23:00 +13°C° 1.1 mm 16 mps 738 mmHg 83%

    Tomorrow, 23 November, Thursday

    Time Temperature Precipitation Wind Pressure Humidity
    00:00 +13°C° 1.1 mm 16 mps 737 mmHg 84%
    01:00 +13°C° 0.8 mm 15 mps 737 mmHg 85%
    02:00 +13°C° 0.8 mm 14 mps 737 mmHg 85%
    03:00 +13°C° 0.8 mm 14 mps 737 mmHg 86%
    04:00 +12°C° 0.2 mm 13 mps 738 mmHg 85%
    05:00 +12°C° 0.2 mm 13 mps 739 mmHg 85%
    06:00 +12°C° 0.2 mm 13 mps 740 mmHg 84%
    07:00 +10°C° 0.1 mm 12 mps 742 mmHg 81%
    08:00 +8°C° 0.1 mm 11 mps 743 mmHg 78%
    09:00 +7°C° 0.1 mm 10 mps 745 mmHg 76%
    10:00 +7°C° 0 mm 10 mps 746 mmHg 71%
    11:00 +8°C° 0 mm 10 mps 747 mmHg 67%
    12:00 +9°C° 0 mm 10 mps 748 mmHg 62%
    13:00 +8°C° 0 mm 9 mps 749 mmHg 63%
    14:00 +9°C° 0 mm 8 mps 750 mmHg 65%
    15:00 +9°C° 0 mm 7 mps 750 mmHg 66%
    16:00 +9°C° 0.1 mm 6 mps 750 mmHg 69%
    17:00 +8°C° 0.1 mm 5 mps 750 mmHg 71%
    18:00 +8°C° 0.1 mm 4 mps 750 mmHg 74%
    19:00 +8°C° 1.4 mm 6 mps 750 mmHg 80%
    20:00 +6°C° 1.4 mm 7 mps 749 mmHg 86%
    21:00 +6°C° 1.4 mm 8 mps 749 mmHg 93%
    22:00 +6°C° 0.9 mm 8 mps 748 mmHg 92%
    23:00 +5°C° 0.9 mm 9 mps 748 mmHg 91%

    Day after tomorrow, 24 November, Friday

    Time Temperature Precipitation Wind Pressure Humidity
    00:00 +5°C° 0.9 mm 9 mps 748 mmHg 91%
    01:00 +4°C° 0 mm 8 mps 749 mmHg 90%
    02:00 +4°C° 0 mm 6 mps 749 mmHg 89%
    03:00 +3°C° 0 mm 5 mps 750 mmHg 89%
    04:00 +3°C° 0 mm 5 mps 750 mmHg 89%
    05:00 +3°C° 0 mm 4 mps 751 mmHg 90%
    06:00 +3°C° 0 mm 3 mps 752 mmHg 90%
    07:00 +3°C° 0 mm 3 mps 752 mmHg 89%
    08:00 +4°C° 0 mm 2 mps 753 mmHg 87%
    09:00 +5°C° 0 mm 2 mps 753 mmHg 86%
    10:00 +7°C° 0 mm 1 mps 753 mmHg 81%
    11:00 +8°C° 0 mm 1 mps 753 mmHg 75%
    12:00 +9°C° 0 mm 1 mps 753 mmHg 70%
    13:00 +9°C° 0 mm 1 mps 753 mmHg 73%
    14:00 +9°C° 0 mm 1 mps 753 mmHg 75%
    15:00 +8°C° 0 mm 2 mps 753 mmHg 78%
    16:00 +7°C° 0.1 mm 2 mps 753 mmHg 80%
    17:00 +6°C° 0.1 mm 2 mps 753 mmHg 83%
    18:00 +6°C° 0.1 mm 2 mps 753 mmHg 85%
    19:00 +6°C° 0.6 mm 2 mps 753 mmHg 87%
    20:00 +6°C° 0.6 mm 2 mps 753 mmHg 90%
    21:00 +6°C° 0.6 mm 2 mps 753 mmHg 92%
    22:00 +4°C° 0.6 mm 3 mps 753 mmHg 90%
    23:00 +3°C° 0.6 mm 5 mps 753 mmHg 89%

    25 November, Saturday

    Time Temperature Precipitation Wind Pressure Humidity
    00:00 +3°C° 0.6 mm 7 mps 753 mmHg 87%
    01:00 +2°C° 0.2 mm 7 mps 753 mmHg 85%
    02:00 +1°C° 0.2 mm 8 mps 753 mmHg 82%
    03:00 0°C° 0.2 mm 8 mps 754 mmHg 79%
    04:00 0°C° 0 mm 8 mps 754 mmHg 79%
    05:00 0°C° 0 mm 8 mps 755 mmHg 78%
    06:00 -1°C° 0 mm 8 mps 755 mmHg 77%
    07:00 -1°C° 0 mm 8 mps 756 mmHg 77%
    08:00 0°C° 0 mm 8 mps 757 mmHg 77%
    09:00 0°C° 0 mm 8 mps 758 mmHg 77%
    10:00 +1°C° 0 mm 8 mps 758 mmHg 72%
    11:00 +2°C° 0 mm 8 mps 759 mmHg 67%
    12:00 +3°C° 0 mm 9 mps 759 mmHg 61%
    13:00 +3°C° 0 mm 9 mps 759 mmHg 63%
    14:00 +4°C° 0 mm 8 mps 760 mmHg 65%
    15:00 +2°C° 0 mm 8 mps 760 mmHg 67%
    16:00 +1°C° 0 mm 8 mps 760 mmHg 69%
    17:00 +1°C° 0 mm 8 mps 761 mmHg 71%
    18:00 0°C° 0 mm 8 mps 761 mmHg 73%
    19:00 -1°C° 0 mm 8 mps 761 mmHg 73%
    20:00 -1°C° 0 mm 7 mps 762 mmHg 74%
    21:00 -1°C° 0 mm 7 mps 762 mmHg 74%
    22:00 -1°C° 0 mm 7 mps 762 mmHg 75%
    23:00 -1°C° 0 mm 7 mps 762 mmHg 75%

    26 November, Sunday

    Time Temperature Precipitation Wind Pressure Humidity
    00:00 -1°C° 0 mm 7 mps 762 mmHg 76%
    01:00 -1°C° 0 mm 7 mps 762 mmHg 77%
    02:00 -1°C° 0 mm 8 mps 762 mmHg 78%
    03:00 -1°C° 0 mm 8 mps 762 mmHg 79%
    04:00 -1°C° 0 mm 8 mps 763 mmHg 81%
    05:00 -1°C° 0 mm 7 mps 763 mmHg 83%
    06:00 -1°C° 0 mm 7 mps 763 mmHg 84%
    07:00 0°C° 0 mm 7 mps 763 mmHg 83%
    08:00 0°C° 0 mm 7 mps 763 mmHg 82%
    09:00 0°C° 0 mm 7 mps 764 mmHg 81%
    10:00 +1°C° 0.1 mm 8 mps 764 mmHg 76%
    11:00 +3°C° 0.1 mm 9 mps 764 mmHg 70%
    12:00 +5°C° 0.1 mm 9 mps 764 mmHg 65%
    13:00 +5°C° 0 mm 8 mps 764 mmHg 68%
    14:00 +4°C° 0 mm 8 mps 764 mmHg 71%
    15:00 +4°C° 0 mm 7 mps 764 mmHg 74%
    16:00 +3°C° 0 mm 7 mps 764 mmHg 77%
    17:00 +2°C° 0 mm 7 mps 765 mmHg 81%
    18:00 0°C° 0 mm 7 mps 765 mmHg 85%
    19:00 0°C° 0 mm 7 mps 765 mmHg 85%
    20:00 +1°C° 0 mm 6 mps 765 mmHg 85%
    21:00 +1°C° 0 mm 6 mps 766 mmHg 86%
    22:00 +1°C° 0 mm 6 mps 766 mmHg 86%
    23:00 +1°C° 0 mm 6 mps 765 mmHg 86%

    27 November, Monday

    Time Temperature Precipitation Wind Pressure Humidity
    00:00 0°C° 0 mm 5 mps 765 mmHg 86%
    01:00 +1°C° 0 mm 5 mps 765 mmHg 86%
    02:00 +1°C° 0 mm 5 mps 764 mmHg 86%
    03:00 +1°C° 0 mm 5 mps 764 mmHg 86%
    04:00 +2°C° 0 mm 6 mps 764 mmHg 84%
    05:00 +2°C° 0 mm 6 mps 763 mmHg 82%
    06:00 +3°C° 0 mm 7 mps 762 mmHg 81%
    07:00 +4°C° 0.1 mm 7 mps 762 mmHg 80%
    08:00 +4°C° 0.1 mm 8 mps 761 mmHg 79%
    09:00 +5°C° 0.1 mm 9 mps 760 mmHg 78%
    10:00 +6°C° 0.4 mm 10 mps 759 mmHg 78%
    11:00 +6°C° 0.4 mm 11 mps 758 mmHg 79%
    12:00 +7°C° 0.4 mm 12 mps 757 mmHg 80%
    13:00 +5°C° 0.6 mm 12 mps 756 mmHg 81%
    14:00 +5°C° 0.6 mm 12 mps 754 mmHg 83%
    15:00 +5°C° 0.6 mm 13 mps 753 mmHg 84%
    16:00 +5°C° 1.3 mm 13 mps 752 mmHg 85%
    17:00 +5°C° 1.3 mm 13 mps 750 mmHg 86%
    18:00 +5°C° 1.3 mm 14 mps 749 mmHg 87%
    19:00 +4°C° 1.6 mm 12 mps 748 mmHg 89%
    20:00 +3°C° 1.6 mm 10 mps 748 mmHg 90%
    21:00 +3°C° 1.6 mm 9 mps 747 mmHg 92%
    22:00 +2°C° 0.3 mm 9 mps 747 mmHg 91%
    23:00 +2°C° 0.3 mm 10 mps 747 mmHg 91%
    Show more